Worland, WY

3:12 AM MDT on August 18, 2017 (GMT -0600)
Worland Municipal

Weather History for KWRL - November, 2011

Change the Weather History Date:

Thursday, November 3, 2011

  Actual Average Record
Temperature  
Mean Temperature 36 °F 38 °F  
Max Temperature 49 °F 52 °F 68 °F (1962)
Min Temperature 22 °F 24 °F -16 °F (1991)
Degree Days  
Heating Degree Days 29 27  
Month to date heating degree days 97 80  
Since 1 July heating degree days 661 942  
Cooling Degree Days 0 0  
Month to date cooling degree days 0 0  
Year to date cooling degree days 692 535  
Moisture  
Dew Point 22 °F    
Average Humidity 62    
Maximum Humidity 88    
Minimum Humidity 36    
Precipitation  
Precipitation 0.00 in 0.01 in 0.18 in (1960)
Month to date precipitation 0.07 0.04  
Year to date precipitation 10.42 7.03  
Sea Level Pressure  
Sea Level Pressure 30.03 in    
Wind  
Wind Speed 13 mph (SSE)    
Max Wind Speed 22 mph    
Max Gust Speed 32 mph    
Visibility 10 miles    
Events      
T = Trace of Precipitation, MM = Missing Value Source: NWS Daily Summary

Daily Weather History Graph

Daily Weather History Graph

Search for Another Location

Airport or City:

Trip Planner

Search our weather history database for the weather conditions in past years. The results will help you decide how hot, cold, wet, or windy it might be!

Date:

Astronomy

Nov. 03, 2011 Rise Set
Actual Time 7:50 AM MDT 5:59 PM MDT
Civil Twilight 7:20 AM MDT 6:29 PM MDT
Nautical Twilight 6:46 AM MDT 7:03 PM MDT
Astronomical Twilight 6:12 AM MDT 7:37 PM MDT
Moon 2:37 PM MDT (11/3) 12:52 AM MDT (11/3)
Length of Visible Light 11h 09m
Length of Day
10h 08m
First Quarter, 61% of the Moon is Illuminated
Nov 3
First Quarter
Nov 10
Full
Nov 18
Last Quarter
Nov 24
New
Dec 2
First Quarter

Hourly Weather History & Observations

Time (MDT) Temp. Windchill Dew Point Humidity Pressure Visibility Wind Dir Wind Speed Gust Speed Precip Events Conditions
12:53 AM 23.0 °F 18.4 °F 19.0 °F 85% 30.35 in 10.0 mi NNE 3.5 mph - N/A   Clear
1:53 AM 28.0 °F 17.5 °F 19.0 °F 69% 30.30 in 10.0 mi SSE 12.7 mph - N/A   Clear
2:53 AM 25.0 °F 19.3 °F 18.0 °F 75% 30.28 in 10.0 mi ESE 4.6 mph - N/A   Clear
3:53 AM 30.0 °F 18.7 °F 19.0 °F 64% 30.24 in 10.0 mi SSE 16.1 mph 23.0 mph N/A   Clear
4:53 AM 28.9 °F 16.9 °F 19.0 °F 67% 30.20 in 10.0 mi South 17.3 mph 23.0 mph N/A   Clear
6:53 AM 25.0 °F 18.1 °F 19.0 °F 78% 30.20 in 10.0 mi SW 5.8 mph - N/A   Clear
7:53 AM 23.0 °F - 19.0 °F 85% 30.20 in 10.0 mi Calm Calm - N/A   Clear
8:53 AM 25.0 °F - 21.0 °F 85% 30.19 in 10.0 mi Calm Calm - N/A   Clear
9:53 AM 36.0 °F 28.5 °F 19.9 °F 52% 30.15 in 10.0 mi South 10.4 mph - N/A   Clear
10:53 AM 39.0 °F 30.3 °F 21.9 °F 50% 30.10 in 10.0 mi SSE 16.1 mph - N/A   Clear
11:53 AM 43.0 °F 35.1 °F 21.9 °F 43% 30.04 in 10.0 mi South 17.3 mph - N/A   Clear
12:53 PM 46.0 °F 38.8 °F 21.9 °F 39% 29.99 in 10.0 mi SSE 18.4 mph 24.2 mph N/A   Clear
1:53 PM 48.0 °F - 24.1 °F 39% 29.92 in 10.0 mi South 12.7 mph - N/A   Clear
2:53 PM 48.0 °F - 23.0 °F 37% 29.88 in 10.0 mi SSE 17.3 mph - N/A   Clear
3:53 PM 46.9 °F - 24.1 °F 41% 29.86 in 10.0 mi SSE 21.9 mph 32.2 mph N/A   Clear
4:53 PM 44.1 °F 36.8 °F 24.1 °F 45% 29.84 in 10.0 mi SSE 16.1 mph - N/A   Clear
5:53 PM 43.0 °F 35.7 °F 24.1 °F 47% 29.84 in 10.0 mi SSE 15.0 mph - N/A   Clear
6:53 PM 39.0 °F 32.3 °F 24.1 °F 55% 29.87 in 10.0 mi SSE 10.4 mph - N/A   Clear
8:53 PM 41.0 °F 32.8 °F 25.0 °F 53% 29.86 in 10.0 mi SSE 16.1 mph - N/A   Clear
9:53 PM 37.9 °F 30.5 °F 25.0 °F 60% 29.83 in 10.0 mi SE 11.5 mph - N/A   Clear
10:53 PM 35.1 °F 26.4 °F 25.0 °F 67% 29.82 in 10.0 mi ESE 12.7 mph - N/A   Clear
11:53 PM 37.9 °F 29.6 °F 24.1 °F 57% 29.78 in 10.0 mi SSE 13.8 mph - N/A   Clear